Weather History for Viciebsk, Belarus

Change the Weather History Date:

Thursday, January 31, 2013

  Actual Average Record
Temperature  
Mean Temperature 30 °F -  
Max Temperature 36 °F 26 °F - ()
Min Temperature 26 °F 13 °F - ()
Degree Days  
Heating Degree Days 34    
Moisture  
Dew Point 30 °F    
Average Humidity 95    
Maximum Humidity 100    
Minimum Humidity 77    
Precipitation  
Precipitation 0.04 in 0.04 in - ()
Sea Level Pressure  
Sea Level Pressure 29.37 in    
Wind  
Wind Speed 9 mph ()    
Max Wind Speed 16 mph    
Max Gust Speed 25 mph    
Visibility 1.6 miles    
Events Fog , Rain , Snow    
T = Trace of Precipitation, MM = Missing Value Source: Averaged Metar Reports

Daily Weather History Graph

Daily Weather History Graph

Search for Another Location

Airport:

Trip Planner

Search our weather history database for the weather conditions in past years. The results will help you decide how hot, cold, wet, or windy it might be!

Date:

Astronomy

Jan. 31, 2013 Rise Set
Actual Time 8:52 AM FET 5:33 PM FET
Civil Twilight 8:12 AM FET 6:13 PM FET
Nautical Twilight 7:28 AM FET 6:57 PM FET
Astronomical Twilight 6:45 AM FET 7:40 PM FET
Moon 11:14 PM FET 9:48 AM FET
Length of Visible Light 10h 01m
Length of Day
8h 41m
Waning Gibbous, 82% of the Moon is Illuminated
Jan 31
Waning Gibbous
Feb 3
Last Quarter
Feb 10
New
Feb 17
First Quarter
Feb 25
Full

Hourly Weather History & Observations

Time (FET) Temp. Windchill Dew Point Humidity Pressure Visibility Wind Dir Wind Speed Gust Speed Precip Events Conditions
12:00 AM 28 °F - 24 °F 77% 29.58 in 6 mi SSE 13.4 mph - -   Mostly Cloudy
3:00 AM 29 °F - 27 °F 90% 29.47 in 1 mi South 11.2 mph - - Snow Snow
6:00 AM 29 °F - 28 °F 95% 29.40 in 0 mi South 11.2 mph - - Snow Snow
8:00 AM 28.4 °F 16.7 °F 28.4 °F 100% 29.33 in 1.4 mi South 15.7 mph 24.6 mph N/A Snow Light Snow
9:00 AM 30 °F - 29 °F 93% 29.39 in 1 mi South 8.9 mph - - Snow Snow
9:00 AM 28.4 °F 17.6 °F 28.4 °F 100% 29.33 in 1.0 mi South 13.4 mph 20.1 mph N/A Snow Snow
9:40 AM 28.4 °F 17.6 °F 28.4 °F 100% 29.33 in - South 13.4 mph 20.1 mph N/A Snow Light Snow
10:00 AM 30.2 °F 19.9 °F 28.4 °F 93% 29.33 in - South 13.4 mph 20.1 mph N/A Snow Light Snow
10:07 AM 30.2 °F 23.5 °F 28.4 °F 93% 29.33 in - South 6.7 mph 15.7 mph N/A   Light Freezing Drizzle
11:00 AM 30.2 °F 22.1 °F 30.2 °F 100% 29.33 in - South 8.9 mph 15.7 mph N/A   Light Freezing Drizzle
11:15 AM 30.2 °F 22.1 °F 30.2 °F 100% 29.33 in - South 8.9 mph 15.7 mph N/A   Overcast
12:00 PM 32 °F - 31 °F 96% 29.39 in 1 mi South 6.7 mph - -   Mist
12:00 PM 32.0 °F 24.3 °F 30.2 °F 93% 29.36 in 1.2 mi South 8.9 mph - N/A   Overcast
12:22 PM 32.0 °F 24.3 °F 30.2 °F 93% 29.36 in 0.8 mi South 8.9 mph - N/A Snow Snow
1:00 PM 32.0 °F 25.7 °F 32.0 °F 100% 29.36 in 1.1 mi South 6.7 mph - N/A Rain , Snow Snow
1:25 PM 32.0 °F 25.7 °F 32.0 °F 100% 29.36 in 2.2 mi South 6.7 mph - N/A   Light Drizzle
1:40 PM 32.0 °F 25.7 °F 32.0 °F 100% 29.36 in 0.7 mi South 6.7 mph - N/A   Drizzle
1:45 PM 32.0 °F 25.7 °F 32.0 °F 100% 29.36 in 0.4 mi South 6.7 mph - N/A Fog Fog
2:00 PM 32.0 °F 25.7 °F 32.0 °F 100% 29.36 in 0.4 mi SSW 6.7 mph - N/A Fog Fog
2:35 PM 32.0 °F 25.7 °F 32.0 °F 100% 29.36 in 0.8 mi SSW 6.7 mph - N/A   Overcast
3:00 PM 35 °F - 34 °F 96% 29.40 in 2 mi SW 6.7 mph - - Fog Light Fog
3:00 PM 33.8 °F 26.5 °F 32.0 °F 93% 29.36 in - SW 8.9 mph - N/A   Overcast
3:20 PM 33.8 °F 26.5 °F 32.0 °F 93% 29.36 in - SW 8.9 mph - N/A   Overcast
3:35 PM 33.8 °F 26.5 °F 32.0 °F 93% 29.36 in - SW 8.9 mph - N/A   Overcast
4:00 PM 33.8 °F 27.9 °F 32.0 °F 93% 29.36 in - SSW 6.7 mph - N/A   Mostly Cloudy
6:00 PM 35 °F - 33 °F 90% 29.39 in 4 mi SSW 4.5 mph - - Rain Light Rain
9:00 PM 35 °F - 33 °F 87% 29.34 in 4 mi South 4.5 mph - -   Mist